Terug naar catalogus

ONEWEB-0237

ActiefCommunicatiePO
NORAD 48770·PAYLOAD·🇬🇧 United Kingdom

Gelanceerd May 28, 2021 vanaf Vostochny Cosmodrome

Loading…

Volgende Passages (komende 24 uur)

TLE

VersSource: CelesTrak SupGP

Epoch: Sep 14, 2026, 11:11 UTC

1 48770C 21045D   26257.46646251 -.00000381  00000+0 -10129-2 0  2579
2 48770  87.8980 241.4008 0001707  85.1973  16.7080 13.15549413    14

Volg ONEWEB-0237 in realtime met AllMySat

Download on the App Store